Meteo Giornale » Osservazioni meteo Canada » Schefferville Que
ore: 13:00 - Osservazioni Meteo Schefferville Que
Lat. 54° 48' N Lon. 66° 48' W Alt. 521 metri s.l.m.
10 °C
Molto Nuvoloso
Temp. 24 Ore
3 °C
10 °C
Nord
22.2 Km/h
Dew point 3 °C
Umidità 61 %
Visibilità 14 Km
Il sole sorge alle ore 05:32
Il sole tramonta alle ore 19:22
| Data e Ora | Cielo e Fenomeni | T °C | DP °C | Um. % | Pres. hPa | Vis. km | Vento km/h | |
|---|---|---|---|---|---|---|---|---|
| Oggi h: 13:00 | Molto Nuvoloso | 10 | 3 | 61 | 1017 | 14 | N 22.2 | |
| Oggi h: 12:00 | Molto Nuvoloso | 10 | 4 | 66 | 1017 | 14 | N 20.3 | |
| Oggi h: 11:00 | Molto Nuvoloso | 8 | 3 | 70 | 1017 | 14 | N 20.3 | |
| Oggi h: 10:21 | Molto Nuvoloso | 7 | 3 | 75 | 1017 | 14 | N 20.3 | |
| Oggi h: 10:00 | Molto Nuvoloso | 7 | 4 | 81 | 1017 | 14 | N 20.3 | |
| Oggi h: 09:00 | Coperto | 4 | 3 | 93 | 1017 | 14 | N 20.3 | |
| Oggi h: 08:00 | Coperto | 3 | 2 | 93 | 1016 | 14 | N/NO 20.3 | |
| Oggi h: 07:53 | Coperto | 3 | 3 | 100 | 1016 | 14 | N/NO 16.7 | |
| Oggi h: 07:06 | Coperto | 3 | 2 | 93 | 1016 | 14 | N/NO 16.7 | |
| Oggi h: 07:00 | Coperto | 3 | 2 | 93 | 1016 | 14 | N/NO 18.5 | |
| Oggi h: 06:45 | Coperto | 3 | 2 | 93 | 1016 | 14 | N 18.5 | |
| Oggi h: 06:44 | Coperto | 3 | 2 | 93 | 1016 | 14 | N 20.3 | |
| Oggi h: 06:23 | Coperto | 3 | 2 | 93 | 1016 | 14 | N/NO 13 | |
| Oggi h: 06:14 | Coperto | 3 | 3 | 100 | 1016 | 14 | N/NO 13 | |
| Oggi h: 06:00 | Coperto | 3 | 2 | 93 | 1015 | 14 | N 16.7 | |
| Oggi h: 05:46 | Coperto | 3 | 2 | 93 | 1015 | 14 | N 16.7 | |
| Oggi h: 05:00 | Coperto | 3 | 2 | 93 | 1015 | 14 | N/NO 24 | |
| Oggi h: 04:27 | Coperto | 3 | 2 | 93 | 1014 | 14 | N/NO 20.3 | |
| Oggi h: 04:00 | Coperto | 3 | 3 | 100 | 1014 | 14 | N/NO 16.7 | |
| Oggi h: 03:00 | Coperto | 3 | 3 | 100 | 1014 | 14 | N/NO 11.1 | |
| Oggi h: 02:38 | Coperto | 3 | 3 | 100 | 1013 | 14 | N/NO 20.3 | |
| Oggi h: 02:29 | Coperto | 3 | 3 | 100 | 1013 | 14 | N/NO 25.9 | |
| Oggi h: 02:00 | Coperto | 4 | 4 | 100 | 1013 | 14 | N 16.7 | |
| Oggi h: 01:11 | Foschia | 4 | 4 | 100 | 1012 | 10 | NO 18.5 | |
| Oggi h: 01:07 | Pioggia Foschia | 4 | 4 | 100 | 1012 | 10 | N/NO 16.7 | |
| Oggi h: 01:01 | Pioggia Foschia | 4 | 4 | 100 | 1012 | 6 | N/NO 20.3 | |
| Oggi h: 01:00 | Foschia | 4 | 4 | 100 | 1012 | 5 | N/NO 18.5 | |
| Oggi h: 00:43 | Foschia | 4 | 4 | 100 | 1012 | 5 | N/NO 16.7 | |
| Oggi h: 00:00 | Pioggia Foschia | 5 | 5 | 100 | 1012 | 5 | N/NO 20.3 | |
| Ieri h: 23:59 | Pioggia Foschia | 5 | 5 | 100 | 1012 | 5 | N/NO 22.2 | |
| Ieri h: 23:46 | Pioggia Foschia | 5 | 5 | 100 | 1012 | 2 | N/NO 18.5 | |
| Ieri h: 23:43 | Foschia | 5 | 5 | 100 | 1012 | 2 | N/NO 22.2 | |
| Ieri h: 23:34 | Foschia | 5 | 5 | 100 | 1012 | 8 | N/NO 16.7 | |
| Ieri h: 23:00 | Coperto | 5 | 5 | 100 | 1012 | 14 | N/NO 20.3 | |
| Ieri h: 22:20 | Foschia | 5 | 5 | 100 | 1012 | 10 | N/NO 18.5 | |
| Ieri h: 22:04 | Foschia | 5 | 5 | 100 | 1012 | 8 | N/NO 22.2 | |
| Ieri h: 22:00 | Coperto | 5 | 5 | 100 | 1012 | 11 | N/NO 16.7 | |
| Ieri h: 21:54 | Coperto | 5 | 5 | 100 | 1012 | 14 | N/NO 18.5 | |
| Ieri h: 21:36 | Pioggia | 6 | 6 | 100 | 1011 | 14 | N/NO 18.5 | |
| Ieri h: 21:34 | Pioggia | 6 | 6 | 100 | 1011 | 14 | N/NO 16.7 | |
| Ieri h: 21:14 | Pioggia | 6 | 6 | 100 | 1011 | 14 | N/NO 14.8 | |
| Ieri h: 21:03 | Pioggia | 6 | 6 | 100 | 1011 | 14 | N/NO 20.3 | |
| Ieri h: 21:00 | Pioggia | 6 | 6 | 100 | 1011 | 14 | N/NO 16.7 | |
| Ieri h: 20:30 | Pioggia | 6 | 6 | 100 | 1011 | 14 | N/NO 22.2 | |
| Ieri h: 20:12 | Pioggia | 7 | 6 | 93 | 1010 | 13 | N/NO 18.5 | |
| Ieri h: 20:00 | Coperto | 7 | 6 | 93 | 1010 | 14 | N/NO 18.5 | |
| Ieri h: 19:30 | Coperto | 7 | 7 | 100 | 1010 | 14 | N/NO 20.3 | |
| Ieri h: 19:14 | Coperto | 7 | 7 | 100 | 1009 | 14 | N 14.8 | |
| Ieri h: 19:00 | Coperto | 7 | 7 | 100 | 1009 | 14 | N 24 | |
| Ieri h: 18:00 | Coperto | 8 | 7 | 93 | 1008 | 14 | N 16.7 | |
| Ieri h: 17:54 | Foschia | 8 | 8 | 100 | 1008 | 10 | N/NO 18.5 | |
| Ieri h: 17:44 | Foschia | 8 | 8 | 100 | 1008 | 6 | N/NO 16.7 | |
| Ieri h: 17:42 | Foschia | 8 | 8 | 100 | 1008 | 8 | N 20.3 | |
| Ieri h: 17:35 | Coperto | 8 | 8 | 100 | 1008 | 14 | N/NO 14.8 | |
| Ieri h: 17:25 | Pioggia Foschia | 8 | 8 | 100 | 1008 | 10 | N/NO 16.7 | |
| Ieri h: 17:20 | Pioggia Foschia | 8 | 8 | 100 | 1008 | 6 | N/NO 16.7 | |
| Ieri h: 17:16 | Foschia | 8 | 8 | 100 | 1008 | 8 | N/NO 24 | |
| Ieri h: 17:00 | Molto Nuvoloso | 9 | 8 | 93 | 1008 | 14 | N/NO 20.3 | |
| Ieri h: 16:56 | Pioggia | 9 | 8 | 93 | 1008 | 13 | N/NO 16.7 | |
| Ieri h: 16:47 | Pioggia Foschia | 9 | 9 | 100 | 1007 | 6 | N/NO 24 | |
| Ieri h: 16:46 | Foschia | 9 | 9 | 100 | 1007 | 6 | N/NO 24 | |
| Ieri h: 16:37 | Coperto | 9 | 9 | 100 | 1007 | 14 | N/NO 16.7 | |
| Ieri h: 16:32 | Pioggia Foschia | 9 | 9 | 100 | 1007 | 10 | N/NO 18.5 | |
| Ieri h: 16:30 | Pioggia Foschia | 9 | 9 | 100 | 1007 | 6 | N/NO 20.3 | |
| Ieri h: 16:29 | Pioggia Foschia | 9 | 9 | 100 | 1007 | 2 | N/NO 22.2 | |
| Ieri h: 16:21 | Pioggia Foschia | 9 | 9 | 100 | 1007 | 5 | N/NO 20.3 | |
| Ieri h: 16:19 | Foschia | 9 | 9 | 100 | 1007 | 2 | N/NO 25.9 | |
| Ieri h: 16:17 | Foschia | 9 | 9 | 100 | 1007 | 8 | N/NO 20.3 | |
| Ieri h: 16:16 | Coperto | 9 | 9 | 100 | 1007 | 11 | N/NO 20.3 | |
| Ieri h: 16:13 | Pioggia | 9 | 9 | 100 | 1007 | 11 | N/NO 18.5 | |
| Ieri h: 16:10 | Pioggia Foschia | 9 | 9 | 100 | 1007 | 5 | N/NO 20.3 | |
| Ieri h: 16:08 | Pioggia Foschia | 9 | 9 | 100 | 1007 | 2 | N/NO 14.8 | |
| Ieri h: 16:04 | Pioggia Foschia | 9 | 9 | 100 | 1007 | 3 | N/NO 22.2 | |
| Ieri h: 16:03 | Foschia | 9 | 9 | 100 | 1007 | 3 | N/NO 20.3 | |
| Ieri h: 16:01 | Foschia | 9 | 9 | 100 | 1007 | 2 | N/NO 25.9 | |
| Ieri h: 16:00 | Foschia | 9 | 9 | 100 | 1007 | 5 | N/NO 22.2 | |
| Ieri h: 15:57 | Foschia | 9 | 9 | 100 | 1007 | 8 | N/NO 16.7 | |
| Ieri h: 15:48 | Foschia | 9 | 8 | 93 | 1007 | 10 | N/NO 20.3 | |
| Ieri h: 15:45 | Foschia | 9 | 8 | 93 | 1007 | 10 | N/NO 22.2 | |
| Ieri h: 15:35 | Coperto | 9 | 8 | 93 | 1006 | 11 | N/NO 24 | |
| Ieri h: 15:25 | Foschia | 9 | 8 | 93 | 1006 | 6 | N/NO 22.2 | |
| Ieri h: 15:06 | Molto Nuvoloso | 9 | 9 | 100 | 1006 | 14 | N/NO 18.5 | |
| Ieri h: 15:01 | Coperto | 9 | 9 | 100 | 1006 | 14 | N/NO 13 | |
| Ieri h: 15:00 | Pioggia | 9 | 9 | 100 | 1006 | 14 | N/NO 13 | |
| Ieri h: 14:55 | Pioggia | 9 | 9 | 100 | 1006 | 11 | N/NO 14.8 | |
| Ieri h: 14:50 | Pioggia Foschia | 8 | 8 | 100 | 1006 | 5 | N/NO 25.9 | |
| Ieri h: 14:43 | Pioggia Foschia | 8 | 8 | 100 | 1006 | 2 | N/NO 20.3 | |



